sat.trackr.live / text

‹ back to catalog

STARLINK-1458

NORAD 45675 · 2020-035U

PAYLOAD ACTIVE UNKNOWN

§ Identity

Operator
Country
US
Launch date
2020-06-04
Launch site
AFETR
Launch vehicle
Mass (kg)
RCS (m²)

Purposes: comms

External: N2YO · Heavens-Above · Gunter

§ Orbital elements

Epoch: 2026-09-20T04:08:40.905888Z

Period
91.30 min
Inclination
53.0381°
Eccentricity
0.0005041
Mean motion
15.77201317 rev/d
Perigee alt
335.0 km
Apogee alt
341.8 km
Semi-major
6,716.5 km
B*
4.4033e-4
RAAN
188.6451°
Arg perigee
99.5031°
Mean anomaly
260.6559°
Rev number
34,920

§ Raw data

STARLINK-14581 45675U 20035U   26263.17269567  .00073627  00000+0  44033-3 0  99902 45675  53.0381 188.6451 0005041  99.5031 260.6559 15.77201317349204

JSON: /api/v1/satellites/45675 · /tle

For live sub-satellite position, see the globe view (requires WebGL).

§ Visibility from observer

Set your observer location to see the next 7 days of passes ≥ 10°. The values pass through the URL so the page stays shareable.

No JS? Fill the form by hand. The geolocation button needs JavaScript.